WetterOnline ( https://www.wetteronline.de )

Wetter aktuell Waldmünchen

Aktuelles Wetter: Waldmünchen (499m)

6-stündlich | Neueste Meldungen
Ortszeit Temperatur Wetter
So, 25.09. 20:00 11.1° C wolkig
So, 25.09. 14:00 14.0° C bedeckt
So, 25.09. 8:00 8.5° C Nebel
So, 25.09. 2:00 8.7° C Nebel
Sa, 24.09. 20:00 11.0° C Regen
Sa, 24.09. 14:00 15.2° C bedeckt
Sa, 24.09. 8:00 4.4° C bedeckt
Sa, 24.09. 2:00 3.7° C bedeckt
Ortszeit Temperatur Wetter
Mo, 26.09. 0:30 9.2° C leichter Regen
Mo, 26.09. 0:20 9.2° C leichter Regen
Mo, 26.09. 0:10 8.9° C Sprühregen
Mo, 26.09. 0:00 9.2° C bewölkt
So, 25.09. 23:50 9.2° C bewölkt
So, 25.09. 23:40 9.0° C bewölkt
So, 25.09. 23:30 9.2° C bedeckt
So, 25.09. 23:00 9.2° C bewölkt
So, 25.09. 22:30 8.9° C bewölkt
So, 25.09. 22:00 9.1° C bewölkt
So, 25.09. 21:30 9.6° C wolkig
Ortszeit Relative Feuchte Sichtweite
So, 25.09. 20:00 86% 50 km
So, 25.09. 14:00 79% 28 km
So, 25.09. 8:00 100% 2.7 km
So, 25.09. 2:00 99% 0.4 km
Sa, 24.09. 20:00 97% 5.0 km
Sa, 24.09. 14:00 63% 50 km
Sa, 24.09. 8:00 99% 18 km
Sa, 24.09. 2:00 98% 14 km
Ortszeit Relative Feuchte Sichtweite
Mo, 26.09. 0:30 98% 16 km
Mo, 26.09. 0:20 98% -
Mo, 26.09. 0:10 98% -
Mo, 26.09. 0:00 98% 21 km
So, 25.09. 23:50 98% -
So, 25.09. 23:40 97% -
So, 25.09. 23:30 96% 30 km
So, 25.09. 23:00 97% 25 km
So, 25.09. 22:30 97% 17 km
So, 25.09. 22:00 97% 25 km
So, 25.09. 21:30 97% 23 km
Ortszeit Niederschlagsmenge Niederschlagsart
So, 25.09. 20:00 0.0 l/m2 in 12 Std. -
So, 25.09. 14:00 0.0 l/m2 in 6 Std. -
So, 25.09. 8:00 0.1 l/m2 in 12 Std. -
So, 25.09. 2:00 0.1 l/m2 in 6 Std. Regen
Sa, 24.09. 20:00 1 l/m2 in 12 Std. Regen
Sa, 24.09. 14:00 0.0 l/m2 in 6 Std. -
Sa, 24.09. 8:00 0.0 l/m2 in 12 Std. -
Sa, 24.09. 2:00 0.0 l/m2 in 6 Std. -
Ortszeit Niederschlagsmenge Niederschlagsart
Mo, 26.09. 0:30 0.1 l/m2 in 1 Std. -
Mo, 26.09. 0:20 keine Meldung -
Mo, 26.09. 0:10 keine Meldung -
Mo, 26.09. 0:00 0.0 l/m2 in 1 Std. -
So, 25.09. 23:50 keine Meldung -
So, 25.09. 23:40 keine Meldung -
So, 25.09. 23:30 0.0 l/m2 in 1 Std. -
So, 25.09. 23:00 0.0 l/m2 in 1 Std. -
So, 25.09. 22:30 0.0 l/m2 in 1 Std. -
So, 25.09. 22:00 0.0 l/m2 in 1 Std. -
So, 25.09. 21:30 0.0 l/m2 in 1 Std. -
Ortszeit Stärke Spitze Richtung
km/h Bft. km/h Grad Sektor
So, 25.09. 20:00 4 1 22 270° W
So, 25.09. 14:00 13 3 19 240° SW
So, 25.09. 8:00 4 1 7 70° O
So, 25.09. 2:00 2 1 6 310° NW
Sa, 24.09. 20:00 0 0 22 - -
Sa, 24.09. 14:00 14 3 22 150° SO
Sa, 24.09. 8:00 4 1 7 80° O
Sa, 24.09. 2:00 4 1 11 70° O
Ortszeit Stärke Spitze Richtung
km/h Bft. km/h Grad Sektor
Mo, 26.09. 0:30 4 1 7 350° N
Mo, 26.09. 0:20 4 1 - 350° N
Mo, 26.09. 0:10 6 1 - 60° NO
Mo, 26.09. 0:00 4 1 4 50° NO
So, 25.09. 23:50 4 1 - 50° NO
So, 25.09. 23:40 2 1 - 40° NO
So, 25.09. 23:30 0 0 4 - -
So, 25.09. 23:00 2 1 7 10° N
So, 25.09. 22:30 4 1 7 200° S
So, 25.09. 22:00 6 1 9 50° NO
So, 25.09. 21:30 0 0 4 - -
Ortszeit Untergrenze Bedeckung Gattung
total tief tief mittel hoch
So, 25.09. 20:00 2700 m 7/8 5/8 - - -
So, 25.09. 14:00 540 m 8/8 8/8 - - -
So, 25.09. 8:00 <30 m 7/8 0/8 - - -
So, 25.09. 2:00 330 m 8/8 8/8 - - -
Sa, 24.09. 20:00 2100 m 8/8 8/8 - - -
Sa, 24.09. 14:00 1380 m 8/8 8/8 - - -
Sa, 24.09. 8:00 3600 m 8/8 8/8 - - -
Sa, 24.09. 2:00 4500 m 8/8 8/8 - - -
Ortszeit Bedeckungsgrad in Achtel und Wolkenuntergrenze
Mo, 26.09. 0:30 7(270m) 7(2100m)
Mo, 26.09. 0:20 7(270m) 7(2100m)
Mo, 26.09. 0:10 7
Mo, 26.09. 0:00 7(360m) 7(750m) 7(990m)
So, 25.09. 23:50 7(360m) 7(750m) 7(990m)
So, 25.09. 23:40 7
So, 25.09. 23:30 5(390m) 7(1110m) 8(2100m)
So, 25.09. 23:00 2(1470m) 3(1500m) 7(2100m)
So, 25.09. 22:30 7(1470m)
So, 25.09. 22:00 4(870m) 7(1500m) 7(7800m)
So, 25.09. 21:30 5(2400m) 5(7500m)
Ortszeit Luftdruck NN (hPa) Tendenz (hPa in 3 Std.)
So, 25.09. 20:00 1011 + 0,1
So, 25.09. 14:00 1011 - 0,7
So, 25.09. 8:00 1013 - 0,5
So, 25.09. 2:00 1014 - 0,2
Sa, 24.09. 20:00 1014 + 0,3
Sa, 24.09. 14:00 1013 0,0
Sa, 24.09. 8:00 1016 - 0,6
Sa, 24.09. 2:00 1017 - 0,7
Ortszeit Luftdruck NN (hPa) Tendenz (hPa in 3 Std.)
Mo, 26.09. 0:30 1011 - 0,4
Mo, 26.09. 0:20 1011 keine Meldung
Mo, 26.09. 0:10 1011 keine Meldung
Mo, 26.09. 0:00 1011 - 0,1
So, 25.09. 23:50 1011 keine Meldung
So, 25.09. 23:40 1011 keine Meldung
So, 25.09. 23:30 1011 + 0,1
So, 25.09. 23:00 1012 + 0,5
So, 25.09. 22:30 1012 + 0,7
So, 25.09. 22:00 1012 + 0,6
So, 25.09. 21:30 1011 + 0,6
Ortszeit Schneehöhe (cm)
So, 25.09. 20:00 0
So, 25.09. 14:00 0
So, 25.09. 8:00 0
So, 25.09. 2:00 0
Sa, 24.09. 20:00 0
Sa, 24.09. 14:00 0
Sa, 24.09. 8:00 0
Sa, 24.09. 2:00 0
Ortszeit Schneehöhe (cm)
Mo, 26.09. 0:30 0
Mo, 26.09. 0:20 0
Mo, 26.09. 0:10 0
Mo, 26.09. 0:00 0
So, 25.09. 23:50 0
So, 25.09. 23:40 0
So, 25.09. 23:30 0
So, 25.09. 23:00 0
So, 25.09. 22:30 0
So, 25.09. 22:00 0
So, 25.09. 21:30 0
Link zu dieser Seite / Seite empfehlen

Das Wetter in ...